Portage, MI

1:20 AM EDT on September 27, 2016 (GMT -0400)
Kalamazoo-Battle Creek International

Weather History for KAZO - September, 2012

Change the Weather History Date:

Tuesday, September 25, 2012

  Actual Average Record
Temperature  
Mean Temperature 58 °F 58 °F  
Max Temperature 69 °F 69 °F 85 °F (1986)
Min Temperature 47 °F 48 °F 37 °F (1999)
Degree Days  
Heating Degree Days 7 7  
Month to date heating degree days 108 87  
Since 1 July heating degree days 118 103  
Cooling Degree Days 0 1  
Month to date cooling degree days 81 53  
Year to date cooling degree days 1048 664  
Growing Degree Days 7 (Base 50)    
Moisture  
Dew Point 48 °F    
Average Humidity 74    
Maximum Humidity 93    
Minimum Humidity 55    
Precipitation  
Precipitation 0.00 in 0.12 in 3.05 in (1986)
Month to date precipitation 2.72 3.28  
Year to date precipitation 20.53 26.87  
Sea Level Pressure  
Sea Level Pressure 29.91 in    
Wind  
Wind Speed 8 mph (South)    
Max Wind Speed 15 mph    
Max Gust Speed 20 mph    
Visibility 10 miles    
Events      
T = Trace of Precipitation, MM = Missing Value Source: NWS Daily Summary

Daily Weather History Graph

Daily Weather History Graph

Search for Another Location

Airport or City:

Trip Planner

Search our weather history database for the weather conditions in past years. The results will help you decide how hot, cold, wet, or windy it might be!

Date:

Astronomy

Sep. 25, 2012 Rise Set
Actual Time 7:33 AM EDT 7:33 PM EDT
Civil Twilight 7:05 AM EDT 8:01 PM EDT
Nautical Twilight 6:32 AM EDT 8:33 PM EDT
Astronomical Twilight 5:59 AM EDT 9:06 PM EDT
Moon 5:01 PM EDT (9/25) 2:49 AM EDT (9/25)
Length of Visible Light 12h 55m
Length of Day
12h 00m
Waxing Gibbous, 80% of the Moon is Illuminated
Sep 25
Waxing Gibbous
Sep 29
Full
Oct 8
Last Quarter
Oct 15
New
Oct 21
First Quarter

Hourly Weather History & Observations

Time (EDT) Temp. Dew Point Humidity Pressure Visibility Wind Dir Wind Speed Gust Speed Precip Events Conditions
12:53 AM 52.0 °F 37.9 °F 59% 29.96 in 10.0 mi SSW 8.1 mph - N/A   Clear
1:53 AM 50.0 °F 39.0 °F 66% 29.95 in 10.0 mi South 8.1 mph - N/A   Clear
2:53 AM 48.9 °F 39.0 °F 69% 29.94 in 10.0 mi South 9.2 mph - N/A   Clear
3:53 AM 46.9 °F 39.9 °F 77% 29.94 in 10.0 mi South 8.1 mph - N/A   Clear
4:53 AM 46.9 °F 39.9 °F 77% 29.93 in 10.0 mi South 9.2 mph - N/A   Clear
5:53 AM 48.9 °F 41.0 °F 74% 29.92 in 10.0 mi South 4.6 mph - N/A   Clear
6:53 AM 48.0 °F 39.9 °F 74% 29.90 in 10.0 mi South 5.8 mph - N/A   Clear
7:53 AM 48.0 °F 42.1 °F 80% 29.93 in 10.0 mi South 8.1 mph - N/A   Clear
8:53 AM 53.1 °F 44.1 °F 71% 29.94 in 10.0 mi South 6.9 mph - N/A   Mostly Cloudy
9:53 AM 57.0 °F 45.0 °F 64% 29.94 in 10.0 mi SSW 11.5 mph - N/A   Mostly Cloudy
10:53 AM 60.1 °F 46.0 °F 60% 29.92 in 10.0 mi SW 8.1 mph - N/A   Overcast
11:53 AM 62.1 °F 48.0 °F 60% 29.91 in 10.0 mi South 8.1 mph - N/A   Mostly Cloudy
12:53 PM 63.0 °F 48.9 °F 60% 29.90 in 10.0 mi South 8.1 mph - N/A   Overcast
1:53 PM 64.0 °F 50.0 °F 60% 29.89 in 10.0 mi South 8.1 mph - N/A   Overcast
2:53 PM 66.2 °F 51.8 °F 60% 29.87 in 10.0 mi South 10.4 mph - N/A   Overcast
3:53 PM 68.0 °F 52.0 °F 56% 29.87 in 10.0 mi South 13.8 mph - N/A   Overcast
4:53 PM 68.0 °F 52.0 °F 56% 29.87 in 10.0 mi SSW 11.5 mph - N/A   Overcast
5:53 PM 68.0 °F 54.0 °F 61% 29.87 in 10.0 mi South 6.9 mph - N/A   Partly Cloudy
6:53 PM 66.9 °F 54.0 °F 63% 29.88 in 10.0 mi South 9.2 mph - N/A   Clear
7:53 PM 63.0 °F 55.0 °F 75% 29.88 in 10.0 mi South 6.9 mph - N/A   Clear
8:53 PM 60.1 °F 57.0 °F 90% 29.88 in 10.0 mi South 6.9 mph - N/A   Clear
9:53 PM 61.0 °F 57.9 °F 90% 29.89 in 9.0 mi South 6.9 mph - N/A   Clear
10:53 PM 59.0 °F 57.9 °F 96% 29.89 in 6.0 mi South 5.8 mph - N/A   Clear
11:53 PM 60.1 °F 57.9 °F 93% 29.89 in 4.0 mi South 6.9 mph - N/A   Clear